sat.trackr.live / text

‹ back to catalog

TRANSPORTER-15 OBJECT H

NORAD 66673 · 2025-276H

PAYLOAD ACTIVE UNKNOWN

§ Identity

Operator
Country
TBD
Launch date
2025-11-28
Launch site
AFWTR
Launch vehicle
Mass (kg)
RCS (m²)

External: N2YO · Heavens-Above · Gunter

§ Orbital elements

Epoch: 2026-09-20T10:24:52.828128Z

Period
94.41 min
Inclination
97.4082°
Eccentricity
0.0006443
Mean motion
15.25247010 rev/d
Perigee alt
485.6 km
Apogee alt
494.5 km
Semi-major
6,868.2 km
B*
4.4213e-4
RAAN
336.1847°
Arg perigee
47.6829°
Mean anomaly
312.4954°
Rev number
4,495

§ Raw data

TRANSPORTER-15 OBJECT H1 66673U 25276H   26263.43394477  .00011055  00000+0  44213-3 0  99982 66673  97.4082 336.1847 0006443  47.6829 312.4954 15.25247010 44952

JSON: /api/v1/satellites/66673 · /tle

For live sub-satellite position, see the globe view (requires WebGL).

§ Visibility from observer

Set your observer location to see the next 7 days of passes ≥ 10°. The values pass through the URL so the page stays shareable.

No JS? Fill the form by hand. The geolocation button needs JavaScript.

§ Radio — SatNOGS DB

ModeDescriptionDownlinkUplink
FSK Mode S - FSK400k - Transmitter 2.210 GHz 2.108 GHz
FSK Mode U - FSK50k - Telemetry 400.600 MHz 401.250 MHz

2 transmitters · refreshed weekly from db.satnogs.org